Flag for Cuba Weather past 2 weeks in Camagüey, Cuba

77 °F

Scattered clouds.

Feels Like: 79 °F
Forecast: N/A
Wind: 16 mph from Northeast

Location: Camaguey Aeropuerto

Current Time: Nov 27, 2015 at 6:11:03 PM

Latest Report: Nov 27, 2015 at 4:50 PM

Visibility: 6 mi

Pressure: 29.98 "Hg

Humidity: 61%

Dew point: 63 °F

Location of CamagüeyLocation

Historic Weather in Camagüey — Graph


Camagüey temperature yesterday

Maximum temperature yesterday: 81 °F (at 9:53 AM)
Minimum temperature yesterday: 70 °F (at 12:50 AM)
Average temperature yesterday: 74 °F

Past Weeks' High & Low Weather Summary

High88 °F (Nov 13, 1:50 PM)94% (Nov 12, 9:50 PM)30.12 "Hg (Nov 12, 9:50 PM)
Low68 °F (Nov 21, 5:50 AM)51% (Nov 25, 10:50 AM)29.89 "Hg (Nov 17, 2:50 PM)
Average76 °F81%29.99 "Hg
* Reported Nov 12 4:50 PM — Nov 27 4:50 PM, Camagüey, Weather by CustomWeather, © 2015

Note: Actual official high and low records may vary slightly from our data, if they occured in-between our weather recording intervals... More about our weather records


Camagüey weather history for previous 24 hours

Time TempWeatherWind HumidityBarometerVisibility
4:50 PM
Fri, Nov 27
77 °FScattered clouds.16 mph61%29.98 "Hg6 mi
3:50 PM79 °FScattered clouds.17 mph58%29.98 "Hg6 mi
2:50 PM79 °FScattered clouds.17 mph54%30.01 "Hg6 mi
1:50 PM79 °FScattered clouds.18 mph61%30.01 "Hg6 mi
12:50 PM81 °FScattered clouds.20 mph58%30.04 "Hg6 mi
11:50 AM81 °FScattered clouds.17 mph58%30.04 "Hg6 mi
10:50 AM79 °FScattered clouds.17 mph61%30.07 "Hg6 mi
9:50 AM79 °FScattered clouds.18 mph65%30.07 "Hg6 mi
8:50 AM75 °FPassing clouds.15 mph78%30.07 "Hg6 mi
7:50 AM72 °FPassing clouds.9 mph88%30.07 "Hg6 mi
6:50 AM70 °FPassing clouds.9 mph88%30.04 "Hg6 mi
5:50 AM70 °FPassing clouds.8 mph94%30.04 "Hg5 mi
4:50 AM70 °FPassing clouds.6 mph88%30.04 "Hg5 mi
3:50 AM70 °FClear.9 mph94%30.01 "Hg6 mi
2:50 AM70 °FPassing clouds.7 mph88%30.04 "Hg6 mi
1:55 AM70 °FPassing clouds.7 mph88%30.04 "Hg6 mi
12:51 AM72 °FPassing clouds.15 mph83%30.04 "Hg6 mi
11:50 PM
Thu, Nov 26
72 °FPassing clouds.6 mph88%30.07 "Hg6 mi
10:50 PM72 °FPassing clouds.8 mph88%30.07 "Hg6 mi
9:50 PM72 °FPassing clouds.9 mph88%30.07 "Hg6 mi
8:50 PM72 °FPassing clouds.10 mph88%30.07 "Hg6 mi
7:50 PM73 °FPassing clouds.13 mph83%30.07 "Hg6 mi
6:50 PM73 °FPassing clouds.12 mph83%30.07 "Hg6 mi
Weather by CustomWeather, © 2015

See weather overviewHow to use our weather pages